FW2897 Weather Reports


Display with metric or nautical units.
time (UTC)temp
F
wind
direction
speed
MPH
gust
MPH
rain 1hr
in
rain 24hr
in
rain mn
in
humidity
%
barometer
mb
20260506120257 67 223 4.0 10.0 0.00 0.00 0.00 72 1010.1
20260506115729 67 193 4.0 10.0 0.00 0.00 0.00 73 1010.1
20260506115227 67 210 3.0 10.0 0.00 0.00 0.00 74 1010.0
20260506114722 66 212 2.0 8.0 0.00 0.00 0.00 75 1010.0
20260506114222 65 229 2.0 8.0 0.00 0.00 0.00 76 1010.0
20260506113708 65 220 2.0 6.0 0.00 0.00 0.00 77 1009.9
20260506113211 65 206 2.0 8.0 0.00 0.00 0.00 77 1010.0
20260506112642 65 184 2.0 8.0 0.00 0.00 0.00 77 1010.0
20260506112141 64 224 2.0 9.0 0.00 0.00 0.00 77 1010.0
20260506111615 64 171 3.0 9.0 0.00 0.00 0.00 78 1010.0
20260506111050 64 194 2.0 7.0 0.00 0.00 0.00 78 1010.0
20260506110520 64 146 2.0 6.0 0.00 0.00 0.00 78 1010.0
20260506110019 64 206 2.0 9.0 0.00 0.00 0.00 78 1009.9
20260506105453 64 247 2.0 9.0 0.00 0.00 0.00 79 1009.9
20260506104941 64 231 2.0 7.0 0.00 0.00 0.00 79 1009.9
20260506104444 63 241 2.0 7.0 0.00 0.00 0.00 79 1009.9
20260506103914 63 241 3.0 9.0 0.00 0.00 0.00 79 1009.9
20260506103415 63 156 3.0 9.0 0.00 0.00 0.00 79 1010.0
20260506102900 63 262 3.0 7.0 0.00 0.00 0.00 80 1010.0
20260506102404 63 161 4.0 7.0 0.00 0.00 0.00 80 1009.9
20260506101834 63 239 3.0 9.0 0.00 0.00 0.00 80 1010.0
20260506101333 63 222 2.0 9.0 0.00 0.00 0.00 80 1010.0
20260506100804 63 259 2.0 7.0 0.00 0.00 0.00 80 1009.9
20260506100304 63 190 2.0 7.0 0.00 0.00 0.00 80 1009.8
20260506095802 63 113 2.0 7.0 0.00 0.00 0.00 80 1009.8
20260506095529 63 224 2.0 8.0 0.00 0.00 0.00 80 1009.9
20260506094727 63 198 2.0 8.0 0.00 0.00 0.00 80 1010.0
20260506094159 63 252 2.0 6.0 0.00 0.00 0.00 80 1010.0
20260506093657 63 223 2.0 7.0 0.00 0.00 0.00 79 1010.0
20260506093128 64 208 2.0 7.0 0.00 0.00 0.00 79 1009.9
20260506092602 64 236 2.0 7.0 0.00 0.00 0.00 79 1010.0
20260506092036 64 238 2.0 7.0 0.00 0.00 0.00 79 1009.9
20260506091535 64 249 2.0 7.0 0.00 0.00 0.00 79 1009.9
20260506091034 64 232 1.0 9.0 0.00 0.00 0.00 79 1009.9
20260506090531 64 209 2.0 9.0 0.00 0.00 0.00 78 1009.9
20260506090030 64 236 2.0 7.0 0.00 0.00 0.00 78 1010.0
20260506085526 64 167 2.0 7.0 0.00 0.00 0.00 78 1010.0
20260506085021 64 214 2.0 7.0 0.00 0.00 0.00 78 1010.0
20260506084459 65 200 2.0 7.0 0.00 0.00 0.00 78 1010.0
20260506084201 65 156 2.0 7.0 0.00 0.00 0.00 77 1009.9
20260506083901 65 199 3.0 7.0 0.00 0.00 0.00 77 1009.9
20260506083117 65 202 3.0 7.0 0.00 0.00 0.00 77 1010.0
20260506082612 65 169 2.0 7.0 0.00 0.00 0.00 77 1010.0
20260506082053 65 192 3.0 9.0 0.00 0.00 0.00 77 1010.1
20260506081545 65 127 3.0 9.0 0.00 0.00 0.00 77 1010.1
20260506081029 65 196 2.0 9.0 0.00 0.00 0.00 77 1010.3
20260506080314 65 221 2.0 6.0 0.00 0.00 0.00 77 1010.1
20260506073158 66 210 2.0 8.0 0.00 0.02 0.00 75 1010.3
20260506072659 66 183 2.0 6.0 0.00 0.02 0.00 74 1010.3
20260506072143 66 207 2.0 9.0 0.00 0.02 0.00 74 1010.3
20260506071845 67 205 2.0 9.0 0.00 0.02 0.00 73 1010.3
20260506071119 67 131 2.0 7.0 0.00 0.02 0.00 73 1010.3
20260506070551 67 168 2.0 8.0 0.00 0.02 0.00 73 1010.3
20260506061926 67 214 2.0 7.0 0.00 0.02 0.00 72 1010.6
20260506061919 67 236 2.0 7.0 0.00 0.02 0.00 72 1010.6
20260506060917 67 184 2.0 9.0 0.00 0.02 0.00 72 1010.6
20260506060350 67 271 2.0 9.0 0.00 0.02 0.00 72 1010.5
20260506051035 67 224 1.0 4.0 0.00 0.02 0.00 72 1011.0
20260506050531 67 203 1.0 3.0 0.00 0.02 0.00 71 1011.1
20260506050259 67 221 0.0 3.0 0.00 0.02 0.00 71 1011.1
20260506044727 67 224 1.0 4.0 0.00 0.02 0.00 71 1011.2
20260506043949 67 229 1.0 4.0 0.00 0.02 0.00 71 1011.3
20260506043445 67 209 2.0 6.0 0.00 0.02 0.00 70 1011.2
20260506042941 67 231 2.0 9.0 0.00 0.02 0.00 70 1011.2
20260506042439 67 223 2.0 9.0 0.00 0.02 0.00 70 1011.2
20260506041938 67 212 1.0 7.0 0.00 0.02 0.00 70 1011.2
20260506041645 67 181 2.0 7.0 0.00 0.02 0.00 70 1011.2
20260506041131 67 185 1.0 6.0 0.00 0.02 0.00 70 1011.2
20260506040341 67 216 1.0 4.0 0.00 0.02 0.00 70 1011.1
20260506035836 67 225 1.0 5.0 0.00 0.02 0.02 70 1011.0
20260506035330 67 166 1.0 6.0 0.00 0.02 0.02 70 1011.0
20260506034829 67 195 1.0 6.0 0.00 0.02 0.02 69 1011.0
20260506034318 67 193 0.0 4.0 0.00 0.02 0.02 69 1011.0
20260506033818 67 192 1.0 4.0 0.00 0.02 0.02 69 1011.0
20260506033252 67 227 1.0 4.0 0.00 0.02 0.02 69 1010.9
20260506032748 67 224 1.0 5.0 0.00 0.02 0.02 68 1010.8
20260506032446 67 188 1.0 5.0 0.00 0.02 0.02 68 1010.8
20260506031654 67 208 1.0 5.0 0.00 0.02 0.02 67 1011.0
20260506031153 68 203 1.0 5.0 0.00 0.02 0.02 67 1011.0
20260506030628 68 214 2.0 6.0 0.00 0.02 0.02 67 1011.1
20260506030331 68 200 1.0 6.0 0.00 0.02 0.02 67 1011.2
20260506025558 68 233 2.0 6.0 0.00 0.02 0.02 66 1011.2
20260506025031 68 218 1.0 6.0 0.00 0.02 0.02 66 1011.2
20260506024507 68 237 0.0 3.0 0.00 0.02 0.02 65 1011.2
20260506023936 69 197 1.0 7.0 0.00 0.02 0.02 65 1011.2
20260506023434 69 191 2.0 7.0 0.00 0.02 0.02 64 1011.2
20260506022908 69 300 2.0 8.0 0.00 0.02 0.02 64 1011.2
20260506022405 69 189 2.0 8.0 0.00 0.02 0.02 63 1011.2
20260506021836 69 153 2.0 7.0 0.00 0.02 0.02 63 1011.1
20260506021336 69 205 2.0 7.0 0.00 0.02 0.02 62 1011.0
20260506020819 70 199 2.0 7.0 0.00 0.02 0.02 62 1011.0
20260506020306 70 113 2.0 7.0 0.00 0.02 0.02 61 1011.0
20260506015737 70 167 2.0 6.0 0.00 0.02 0.02 60 1010.9
20260506015235 71 214 2.0 6.0 0.00 0.02 0.02 60 1010.9
20260506014706 71 240 2.0 9.0 0.00 0.02 0.02 59 1010.8
20260506014430 71 198 2.0 10.0 0.00 0.02 0.02 58 1010.8
20260506013702 71 218 1.0 7.0 0.00 0.02 0.02 57 1010.6
20260506013200 71 224 2.0 5.0 0.00 0.02 0.02 57 1010.6
20260506012635 72 199 2.0 6.0 0.00 0.02 0.02 57 1010.4
20260506012132 72 239 2.0 7.0 0.00 0.02 0.02 56 1010.4
20260506011631 72 229 2.0 7.0 0.00 0.02 0.02 55 1010.4
20260506011333 72 188 2.0 10.0 0.00 0.02 0.02 55 1010.3
20260506010601 73 193 3.0 10.0 0.00 0.02 0.02 54 1010.1
20260506010521 73 230 2.0 9.0 0.00 0.02 0.02 53 1010.1
20260506005729 73 219 3.0 7.0 0.00 0.02 0.02 52 1010.1
20260506005007 73 194 3.0 9.0 0.00 0.02 0.02 51 1010.1
20260506004710 74 151 3.0 9.0 0.00 0.02 0.02 51 1010.0
20260506003941 74 172 3.0 10.0 0.00 0.02 0.02 51 1010.0
20260506003438 74 187 2.0 10.0 0.00 0.02 0.02 50 1010.0
20260506003419 74 236 2.0 6.0 0.00 0.02 0.02 50 1009.9
20260506002413 74 262 3.0 7.0 0.00 0.02 0.02 50 1009.8
20260506001852 74 262 3.0 9.0 0.00 0.02 0.02 49 1009.8
20260506001345 74 188 2.0 8.0 0.00 0.02 0.02 49 1009.8
20260506000842 74 196 3.0 10.0 0.00 0.02 0.02 49 1009.7
20260506000340 74 235 3.0 10.0 0.00 0.02 0.02 48 1009.6
20260505235605 75 209 2.0 10.0 0.00 0.02 0.02 48 1009.6
20260505234836 75 261 3.0 13.0 0.00 0.02 0.02 48 1009.6
20260505234319 75 200 4.0 13.0 0.00 0.02 0.02 47 1009.5
20260505233823 75 176 3.0 10.0 0.00 0.02 0.02 47 1009.5
20260505233308 76 234 4.0 13.0 0.00 0.02 0.02 48 1009.4
20260505232747 76 207 4.0 13.0 0.00 0.02 0.02 47 1009.5
20260505232247 76 204 3.0 9.0 0.00 0.02 0.02 47 1009.4
20260505231723 76 204 4.0 18.0 0.00 0.02 0.02 47 1009.4
20260505231202 77 192 5.0 18.0 0.00 0.02 0.02 47 1009.3
20260505230701 77 205 4.0 12.0 0.00 0.02 0.02 46 1009.3
20260505230200 77 103 4.0 11.0 0.00 0.02 0.02 46 1009.4
20260505225659 78 203 3.0 12.0 0.00 0.02 0.02 46 1009.2
20260505225132 78 235 3.0 10.0 0.00 0.02 0.02 45 1009.2
20260505224630 78 162 4.0 12.0 0.00 0.02 0.02 45 1009.1
20260505224111 79 245 5.0 12.0 0.00 0.02 0.02 44 1009.3
20260505223610 79 141 5.0 12.0 0.00 0.02 0.02 44 1009.2
20260505223107 79 240 5.0 14.0 0.00 0.02 0.02 43 1009.2
20260505222806 80 201 5.0 14.0 0.00 0.02 0.02 43 1009.2
20260505222016 79 122 5.0 15.0 0.00 0.02 0.02 43 1009.3
20260505221511 79 203 5.0 15.0 0.00 0.02 0.02 43 1009.4
20260505221243 80 246 5.0 14.0 0.00 0.02 0.02 42 1009.3
20260505220927 80 185 5.0 14.0 0.00 0.02 0.02 42 1009.3
20260505215914 81 188 5.0 14.0 0.00 0.02 0.02 39 1009.3
20260505215402 82 216 4.0 11.0 0.00 0.02 0.02 36 1009.1
20260505214901 82 217 4.0 9.0 0.00 0.02 0.02 36 1009.1
20260505214359 82 43 4.0 11.0 0.00 0.02 0.02 36 1008.9
20260505213854 83 276 5.0 12.0 0.00 0.02 0.02 36 1009.1
20260505213350 83 237 4.0 12.0 0.00 0.02 0.02 35 1009.1
20260505212826 82 220 5.0 18.0 0.00 0.02 0.02 36 1009.0
20260505212258 82 235 6.0 18.0 0.00 0.02 0.02 35 1009.0
20260505211754 82 168 6.0 16.0 0.00 0.02 0.02 34 1009.2
20260505211230 82 145 5.0 14.0 0.00 0.02 0.02 35 1008.9
20260505210701 82 225 5.0 14.0 0.00 0.02 0.02 36 1009.0
20260505210201 83 139 4.0 11.0 0.00 0.02 0.02 34 1009.0
20260505205644 83 244 4.0 12.0 0.00 0.02 0.02 34 1009.0
20260505205408 83 226 5.0 18.0 0.00 0.02 0.02 33 1009.0
20260505204638 83 110 5.0 18.0 0.00 0.02 0.02 32 1009.0
20260505204135 83 235 5.0 15.0 0.00 0.02 0.02 33 1009.0
20260505203839 83 219 5.0 16.0 0.00 0.02 0.02 32 1009.0
20260505203108 83 174 4.0 14.0 0.00 0.02 0.02 32 1009.0
20260505202538 83 276 3.0 9.0 0.00 0.02 0.02 31 1009.0
20260505202037 83 220 3.0 15.0 0.00 0.02 0.02 32 1008.8
20260505201511 83 113 4.0 15.0 0.00 0.02 0.02 32 1009.0
20260505200942 83 302 6.0 17.0 0.00 0.02 0.02 31 1009.0
20260505200442 83 223 4.0 17.0 0.00 0.02 0.02 31 1009.2
20260505195913 84 184 3.0 12.0 0.00 0.02 0.02 30 1008.9
20260505195345 84 247 4.0 14.0 0.00 0.02 0.02 29 1009.0
20260505194841 84 249 4.0 15.0 0.00 0.02 0.02 31 1009.0
20260505194337 83 150 5.0 15.0 0.00 0.02 0.02 30 1009.0
20260505193834 83 295 5.0 18.0 0.00 0.02 0.02 30 1009.0
20260505193308 83 269 5.0 18.0 0.00 0.02 0.02 31 1009.1
20260505192809 83 230 5.0 11.0 0.00 0.02 0.02 33 1009.1
20260505192239 83 125 6.0 15.0 0.00 0.02 0.02 35 1009.1
20260505191739 83 223 5.0 15.0 0.00 0.02 0.02 35 1009.2
20260505191209 83 201 4.0 11.0 0.00 0.02 0.02 35 1009.2
20260505190946 83 214 5.0 17.0 0.00 0.02 0.02 32 1009.3
20260505190143 83 245 6.0 19.0 0.00 0.02 0.02 34 1009.4
20260505185613 82 136 6.0 19.0 0.00 0.02 0.02 37 1009.4
20260505185112 82 185 5.0 15.0 0.00 0.02 0.02 38 1009.5
20260505184607 83 226 3.0 13.0 0.00 0.02 0.02 38 1009.5
20260505184105 83 219 4.0 13.0 0.00 0.02 0.02 39 1009.6
20260505183601 82 115 4.0 15.0 0.00 0.02 0.02 40 1009.7
20260505183550 82 188 4.0 15.0 0.00 0.02 0.02 39 1009.9
20260505182533 82 233 5.0 13.0 0.00 0.02 0.02 43 1010.0
20260505182008 81 200 5.0 12.0 0.00 0.02 0.02 41 1010.0
20260505181504 82 226 5.0 12.0 0.00 0.02 0.02 41 1010.1
20260505181002 82 157 4.0 12.0 0.00 0.02 0.02 42 1010.3
20260505180705 83 164 3.0 13.0 0.00 0.02 0.02 38 1010.5
20260505175909 82 272 3.0 13.0 0.00 0.02 0.02 38 1010.5
20260505175404 82 335 4.0 13.0 0.00 0.02 0.02 38 1010.6
20260505174901 82 212 4.0 13.0 0.00 0.02 0.02 39 1010.7
20260505174400 82 212 3.0 9.0 0.00 0.02 0.02 41 1010.7
20260505173829 82 176 2.0 9.0 0.00 0.02 0.02 41 1010.7
20260505173308 82 108 3.0 13.0 0.00 0.02 0.02 42 1010.8
20260505172738 81 253 3.0 13.0 0.00 0.02 0.02 44 1010.9
20260505172239 81 208 4.0 13.0 0.00 0.02 0.02 43 1010.9
20260505172152 80 177 4.0 13.0 0.00 0.02 0.02 44 1010.9
20260505171206 80 124 4.0 13.0 0.00 0.02 0.02 44 1011.0
20260505170646 79 228 5.0 13.0 0.00 0.02 0.02 46 1011.1
20260505170119 79 173 5.0 13.0 0.00 0.02 0.02 44 1011.0
20260505165841 79 250 4.0 12.0 0.00 0.02 0.02 46 1011.1
20260505165109 78 127 5.0 13.0 0.00 0.02 0.02 49 1011.2
20260505164600 78 68 6.0 14.0 0.00 0.02 0.02 48 1011.2
20260505164103 78 233 4.0 14.0 0.00 0.02 0.02 46 1011.5
20260505163538 78 66 3.0 15.0 0.00 0.02 0.02 48 1011.5
20260505163041 78 210 4.0 15.0 0.00 0.02 0.02 46 1011.5
20260505162736 78 217 4.0 11.0 0.00 0.02 0.02 47 1011.5
20260505162014 78 243 4.0 11.0 0.00 0.02 0.02 48 1011.5
20260505161516 77 236 5.0 11.0 0.00 0.02 0.02 48 1011.5
20260505160954 77 231 4.0 15.0 0.00 0.02 0.02 49 1011.5
20260505160728 76 231 4.0 9.0 0.00 0.02 0.02 49 1011.5
20260505153348 75 167 5.0 12.0 0.00 0.02 0.02 52 1011.8
20260505152824 75 226 4.0 11.0 0.00 0.02 0.02 50 1011.9
20260505152551 75 202 4.0 10.0 0.00 0.02 0.02 51 1012.0
20260505151821 74 218 4.0 10.0 0.00 0.02 0.02 51 1011.9
20260505151300 74 121 3.0 10.0 0.00 0.02 0.02 51 1012.0
20260505150801 74 229 4.0 10.0 0.00 0.02 0.02 52 1011.9
20260505150253 73 184 5.0 12.0 0.00 0.02 0.02 52 1012.0
20260505140151 73 122 2.0 9.0 0.00 0.02 0.02 50 1012.1
20260505124300 68 257 2.0 7.0 0.00 0.02 0.02 58 1011.9
20260505123800 68 282 1.0 7.0 0.00 0.02 0.02 58 1011.9
20260505123233 67 354 1.0 8.0 0.00 0.02 0.02 59 1011.9
20260505122704 67 302 2.0 8.0 0.00 0.02 0.02 59 1011.9
20260505122217 67 195 1.0 6.0 0.00 0.02 0.02 61 1011.9
20260505121640 66 136 1.0 6.0 0.00 0.02 0.02 61 1011.9
20260505121137 66 233 2.0 6.0 0.00 0.02 0.02 63 1011.9
20260505120622 65 323 2.0 6.0 0.00 0.02 0.02 63 1011.9